Location: City of Moscow
(46.7306°N, 116.9989°W)
Time: 04:43:59
(UTC+00:00)

Cosmos 2026 Rocket - Pass Details

Date: 11 December 2025
Orbit: 939 x 999 km, 82.9° (Epoch: 13 January)

Event Time Altitude Azimuth Distance (km) Brightness Sun altitude
Rises 12:45:52 0° 180° (S) 3,586 7.0 -25.9°
Reaches altitude 10° 12:48:20 10° 179° (S) 2,647 6.4 -25.4°
Maximum altitude 12:54:21 74° 95° (E) 983 4.1 -24.4°
Drops below altitude 10° 13:00:27 10° 12° (NNE) 2,687 6.3 -23.4°
Sets 13:02:58 0° 11° (N) 3,644 7.0 -23.0°
